When you browse on this site, cookies collect data to enhance your experience and personalize the content and advertising you see.
Visit our Privacy Policy to learn more. By continuing to use the site, you agree to this use of cookies and data.
  • In Netherlands
  • List of Countries
  • For 7 days
  • Water Temperature
  • Weather Map
  • Weather Widgets
  • user-avatar
    Login

    Hourly Weather Khulna

    Today, 15 October, Tuesday

    Time Temperature Precipitation Wind Pressure Humidity
    00:00 +26°C° 0 mm 1 mps 758 mmHg 72%
    01:00 +26°C° 0 mm 1 mps 758 mmHg 72%
    02:00 +25°C° 0 mm 2 mps 758 mmHg 73%
    03:00 +25°C° 0 mm 2 mps 758 mmHg 74%
    04:00 +25°C° 0 mm 2 mps 758 mmHg 75%
    05:00 +25°C° 0 mm 2 mps 758 mmHg 76%
    06:00 +24°C° 0 mm 1 mps 758 mmHg 77%
    07:00 +26°C° 0 mm 1 mps 758 mmHg 74%
    08:00 +28°C° 0 mm 2 mps 759 mmHg 72%
    09:00 +30°C° 0 mm 2 mps 760 mmHg 69%
    10:00 +31°C° 0 mm 1 mps 759 mmHg 64%
    11:00 +33°C° 0 mm 1 mps 759 mmHg 59%
    12:00 +32°C° 0 mm 0 mps 759 mmHg 54%
    13:00 +34°C° 0 mm 1 mps 758 mmHg 53%
    14:00 +34°C° 0 mm 1 mps 757 mmHg 53%
    15:00 +35°C° 0 mm 2 mps 757 mmHg 52%
    16:00 +32°C° 0 mm 2 mps 757 mmHg 58%
    17:00 +31°C° 0 mm 2 mps 757 mmHg 63%
    18:00 +29°C° 0 mm 1 mps 757 mmHg 69%
    19:00 +29°C° 0 mm 1 mps 757 mmHg 70%
    20:00 +28°C° 0 mm 1 mps 758 mmHg 71%
    21:00 +28°C° 0 mm 1 mps 759 mmHg 73%
    22:00 +27°C° 0 mm 1 mps 759 mmHg 74%
    23:00 +27°C° 0 mm 1 mps 758 mmHg 76%

    Tomorrow, 16 October, Wednesday

    Time Temperature Precipitation Wind Pressure Humidity
    00:00 +27°C° 0 mm 1 mps 758 mmHg 78%
    01:00 +24°C° 0 mm 0 mps 758 mmHg 79%
    02:00 +24°C° 0 mm 0 mps 758 mmHg 80%
    03:00 +24°C° 0 mm 0 mps 758 mmHg 81%
    04:00 +24°C° 0 mm 0 mps 758 mmHg 81%
    05:00 +26°C° 0 mm 1 mps 758 mmHg 81%
    06:00 +26°C° 0 mm 1 mps 758 mmHg 81%
    07:00 +27°C° 0 mm 1 mps 759 mmHg 76%
    08:00 +29°C° 0 mm 1 mps 759 mmHg 71%
    09:00 +31°C° 0 mm 1 mps 760 mmHg 66%
    10:00 +32°C° 0 mm 1 mps 759 mmHg 63%
    11:00 +33°C° 0 mm 1 mps 759 mmHg 60%
    12:00 +34°C° 0 mm 1 mps 758 mmHg 57%
    13:00 +34°C° 0.5 mm 1 mps 757 mmHg 58%
    14:00 +34°C° 0.5 mm 1 mps 757 mmHg 59%
    15:00 +33°C° 0.5 mm 1 mps 756 mmHg 59%
    16:00 +32°C° 0.6 mm 1 mps 756 mmHg 64%
    17:00 +31°C° 0.6 mm 1 mps 756 mmHg 69%
    18:00 +29°C° 0.6 mm 1 mps 756 mmHg 74%
    19:00 +29°C° 0 mm 1 mps 757 mmHg 76%
    20:00 +28°C° 0 mm 1 mps 757 mmHg 77%
    21:00 +28°C° 0 mm 1 mps 758 mmHg 79%
    22:00 +28°C° 0 mm 1 mps 758 mmHg 81%
    23:00 +27°C° 0 mm 1 mps 758 mmHg 82%

    Day after tomorrow, 17 October, Thursday

    Time Temperature Precipitation Wind Pressure Humidity
    00:00 +27°C° 0 mm 1 mps 758 mmHg 84%
    01:00 +27°C° 0.2 mm 1 mps 758 mmHg 84%
    02:00 +27°C° 0.2 mm 1 mps 758 mmHg 85%
    03:00 +26°C° 0.2 mm 1 mps 758 mmHg 85%
    04:00 +26°C° 0.1 mm 1 mps 758 mmHg 85%
    05:00 +26°C° 0.1 mm 1 mps 758 mmHg 85%
    06:00 +26°C° 0.1 mm 1 mps 758 mmHg 84%
    07:00 +28°C° 0 mm 2 mps 759 mmHg 80%
    08:00 +29°C° 0 mm 2 mps 759 mmHg 75%
    09:00 +31°C° 0 mm 2 mps 760 mmHg 71%
    10:00 +32°C° 0.2 mm 2 mps 759 mmHg 66%
    11:00 +34°C° 0.2 mm 2 mps 759 mmHg 62%
    12:00 +34°C° 0.2 mm 1 mps 759 mmHg 57%
    13:00 +34°C° 0 mm 1 mps 758 mmHg 58%
    14:00 +34°C° 0 mm 1 mps 757 mmHg 58%
    15:00 +34°C° 0 mm 1 mps 756 mmHg 58%
    16:00 +33°C° 0 mm 1 mps 756 mmHg 62%
    17:00 +31°C° 0 mm 2 mps 756 mmHg 66%
    18:00 +30°C° 0 mm 2 mps 756 mmHg 70%
    19:00 +30°C° 0 mm 2 mps 757 mmHg 72%
    20:00 +29°C° 0 mm 2 mps 757 mmHg 73%
    21:00 +28°C° 0 mm 2 mps 758 mmHg 74%
    22:00 +28°C° 0 mm 2 mps 758 mmHg 74%
    23:00 +28°C° 0 mm 2 mps 758 mmHg 74%

    18 October, Friday

    Time Temperature Precipitation Wind Pressure Humidity
    00:00 +27°C° 0 mm 2 mps 758 mmHg 74%
    01:00 +27°C° 0 mm 2 mps 758 mmHg 74%
    02:00 +27°C° 0 mm 2 mps 757 mmHg 75%
    03:00 +27°C° 0 mm 2 mps 757 mmHg 76%
    04:00 +26°C° 0 mm 2 mps 757 mmHg 77%
    05:00 +26°C° 0 mm 1 mps 758 mmHg 79%
    06:00 +26°C° 0 mm 1 mps 758 mmHg 80%
    07:00 +28°C° 0 mm 2 mps 758 mmHg 75%
    08:00 +30°C° 0 mm 2 mps 759 mmHg 70%
    09:00 +31°C° 0 mm 2 mps 759 mmHg 65%
    10:00 +32°C° 0 mm 2 mps 759 mmHg 60%
    11:00 +34°C° 0 mm 2 mps 759 mmHg 56%
    12:00 +35°C° 0 mm 2 mps 758 mmHg 51%
    13:00 +35°C° 0 mm 2 mps 758 mmHg 52%
    14:00 +35°C° 0 mm 2 mps 757 mmHg 52%
    15:00 +35°C° 0 mm 3 mps 756 mmHg 53%
    16:00 +34°C° 0 mm 2 mps 756 mmHg 57%
    17:00 +31°C° 0 mm 2 mps 756 mmHg 62%
    18:00 +30°C° 0 mm 2 mps 756 mmHg 67%
    19:00 +29°C° 0 mm 2 mps 757 mmHg 67%
    20:00 +29°C° 0 mm 2 mps 757 mmHg 67%
    21:00 +28°C° 0 mm 1 mps 758 mmHg 68%
    22:00 +28°C° 0 mm 1 mps 758 mmHg 68%
    23:00 +28°C° 0 mm 1 mps 758 mmHg 69%

    19 October, Saturday

    Time Temperature Precipitation Wind Pressure Humidity
    00:00 +27°C° 0 mm 1 mps 758 mmHg 69%
    01:00 +27°C° 0 mm 1 mps 758 mmHg 70%
    02:00 +27°C° 0 mm 1 mps 758 mmHg 71%
    03:00 +27°C° 0 mm 1 mps 758 mmHg 72%
    04:00 +26°C° 0 mm 1 mps 758 mmHg 73%
    05:00 +26°C° 0 mm 1 mps 758 mmHg 73%
    06:00 +26°C° 0 mm 1 mps 758 mmHg 74%
    07:00 +28°C° 0 mm 1 mps 759 mmHg 69%
    08:00 +29°C° 0 mm 1 mps 759 mmHg 65%
    09:00 +31°C° 0 mm 1 mps 760 mmHg 60%
    10:00 +32°C° 0 mm 2 mps 760 mmHg 58%
    11:00 +34°C° 0 mm 2 mps 759 mmHg 55%
    12:00 +35°C° 0 mm 3 mps 759 mmHg 53%
    13:00 +35°C° 0 mm 3 mps 758 mmHg 53%
    14:00 +35°C° 0 mm 3 mps 757 mmHg 54%
    15:00 +35°C° 0 mm 3 mps 757 mmHg 54%
    16:00 +34°C° 0 mm 2 mps 756 mmHg 58%
    17:00 +31°C° 0 mm 2 mps 756 mmHg 63%
    18:00 +30°C° 0 mm 1 mps 756 mmHg 67%
    19:00 +29°C° 0 mm 1 mps 757 mmHg 68%
    20:00 +29°C° 0 mm 1 mps 757 mmHg 69%
    21:00 +28°C° 0 mm 1 mps 758 mmHg 70%
    22:00 +28°C° 0 mm 1 mps 758 mmHg 70%
    23:00 +28°C° 0 mm 1 mps 758 mmHg 71%

    20 October, Sunday

    Time Temperature Precipitation Wind Pressure Humidity
    00:00 +27°C° 0 mm 1 mps 758 mmHg 71%
    01:00 +27°C° 0 mm 1 mps 757 mmHg 73%
    02:00 +27°C° 0 mm 1 mps 757 mmHg 74%
    03:00 +26°C° 0 mm 1 mps 757 mmHg 75%
    04:00 +26°C° 0 mm 1 mps 758 mmHg 76%
    05:00 +26°C° 0 mm 1 mps 758 mmHg 77%
    06:00 +26°C° 0 mm 1 mps 758 mmHg 78%
    07:00 +27°C° 0 mm 1 mps 759 mmHg 73%
    08:00 +29°C° 0 mm 1 mps 759 mmHg 68%
    09:00 +31°C° 0 mm 1 mps 760 mmHg 63%
    10:00 +32°C° 0 mm 1 mps 759 mmHg 59%
    11:00 +34°C° 0 mm 2 mps 759 mmHg 56%
    12:00 +35°C° 0 mm 2 mps 759 mmHg 52%
    13:00 +35°C° 0 mm 2 mps 758 mmHg 52%
    14:00 +35°C° 0 mm 2 mps 757 mmHg 52%
    15:00 +36°C° 0 mm 2 mps 756 mmHg 52%
    16:00 +34°C° 0 mm 2 mps 756 mmHg 57%
    17:00 +31°C° 0 mm 2 mps 756 mmHg 61%
    18:00 +30°C° 0 mm 2 mps 756 mmHg 66%
    19:00 +29°C° 0 mm 1 mps 757 mmHg 67%
    20:00 +29°C° 0 mm 1 mps 757 mmHg 68%
    21:00 +29°C° 0 mm 1 mps 757 mmHg 69%
    22:00 +28°C° 0 mm 1 mps 757 mmHg 70%
    23:00 +28°C° 0 mm 1 mps 757 mmHg 72%
    Show more